Weather History for Hibbing, MN

Change the Weather History Date:

Friday, December 6, 2013

  Actual Average Record
Temperature  
Mean Temperature -5 °F -  
Max Temperature 1 °F 21 °F 42 °F (1988)
Min Temperature -11 °F 3 °F -24 °F (1976)
Degree Days  
Heating Degree Days 70    
Moisture  
Dew Point -12 °F    
Average Humidity 72    
Maximum Humidity 80    
Minimum Humidity 63    
Precipitation  
Precipitation 0.00 in - - ()
Sea Level Pressure  
Sea Level Pressure 30.43 in    
Wind  
Wind Speed 6 mph (WNW)    
Max Wind Speed 10 mph    
Max Gust Speed 18 mph    
Visibility 10 miles    
Events      
Averages and records for this station are not official NWS values.
T = Trace of Precipitation, MM = Missing Value Source: NWS Daily Summary

Daily Weather History Graph

Daily Weather History Graph

Search for Another Location

Airport:

Trip Planner

Search our weather history database for the weather conditions in past years. The results will help you decide how hot, cold, wet, or windy it might be!

Date:

Astronomy

Dec. 06, 2013 Rise Set
Actual Time 7:43 AM CST 4:21 PM CST
Civil Twilight 7:08 AM CST 4:56 PM CST
Nautical Twilight 6:29 AM CST 5:35 PM CST
Astronomical Twilight 5:52 AM CST 6:12 PM CST
Moon 10:39 AM CST (12/6) 9:04 PM CST (12/6)
Length of Visible Light 9h 47m
Length of Day
8h 37m
Waxing Crescent, 19% of the Moon is Illuminated
Dec 6
Waxing Crescent
Dec 9
First Quarter
Dec 17
Full
Dec 25
Last Quarter
Jan 1
New

Hourly Weather History & Observations

Time (CST) Temp. Windchill Dew Point Humidity Pressure Visibility Wind Dir Wind Speed Gust Speed Precip Events Conditions
12:53 AM -4.0 °F -16.3 °F -9.9 °F 76% 30.26 in 10.0 mi West 5.8 mph - N/A   Clear
1:53 AM -5.1 °F -15.8 °F -9.9 °F 80% 30.28 in 10.0 mi West 4.6 mph - N/A   Clear
2:53 AM -5.1 °F -21.5 °F -11.0 °F 76% 30.29 in 10.0 mi WNW 9.2 mph - N/A   Clear
3:53 AM -6.0 °F -16.9 °F -11.9 °F 75% 30.30 in 10.0 mi West 4.6 mph - N/A   Clear
4:53 AM -7.1 °F -19.9 °F -13.0 °F 75% 30.32 in 10.0 mi WNW 5.8 mph - N/A   Clear
5:53 AM -8.0 °F -19.2 °F -13.0 °F 79% 30.34 in 10.0 mi WNW 4.6 mph - N/A   Clear
6:53 AM -8.0 °F -16.9 °F -14.1 °F 75% 30.37 in 10.0 mi West 3.5 mph - N/A   Clear
7:53 AM -8.0 °F -19.2 °F -14.1 °F 75% 30.38 in 10.0 mi West 4.6 mph - N/A   Clear
8:53 AM -7.1 °F -22.8 °F -11.9 °F 79% 30.41 in 10.0 mi WNW 8.1 mph - N/A   Clear
9:53 AM -4.0 °F -21.2 °F -9.9 °F 76% 30.43 in 10.0 mi WNW 10.4 mph - N/A   Clear
10:53 AM -2.0 °F -18.7 °F -9.9 °F 69% 30.44 in 10.0 mi WNW 10.4 mph 17.3 mph N/A   Clear
11:53 AM -0.0 °F -11.6 °F -9.0 °F 66% 30.44 in 10.0 mi Variable 5.8 mph - N/A   Scattered Clouds
12:28 PM -0.4 °F -13.4 °F -9.4 °F 66% 30.31 in 10.0 mi WNW 6.9 mph - N/A   Mostly Cloudy
12:39 PM -0.4 °F -13.4 °F -9.4 °F 66% 30.31 in 10.0 mi WNW 6.9 mph - N/A   Scattered Clouds
12:53 PM -0.0 °F -16.3 °F -9.0 °F 66% 30.44 in 10.0 mi NW 10.4 mph 18.4 mph N/A   Partly Cloudy
1:53 PM 1.0 °F -12.9 °F -9.0 °F 63% 30.44 in 10.0 mi West 8.1 mph - N/A   Clear
2:53 PM 1.0 °F -12.9 °F -9.0 °F 63% 30.45 in 10.0 mi West 8.1 mph - N/A   Clear
3:53 PM -0.0 °F -11.6 °F -9.0 °F 66% 30.48 in 10.0 mi West 5.8 mph - N/A   Clear
4:53 PM -2.0 °F -10.1 °F -11.0 °F 66% 30.49 in 10.0 mi West 3.5 mph - N/A   Clear
5:53 PM -6.0 °F -14.7 °F -11.9 °F 75% 30.52 in 10.0 mi WSW 3.5 mph - N/A   Clear
6:53 PM -7.1 °F -15.9 °F -11.9 °F 79% 30.53 in 10.0 mi West 3.5 mph - N/A   Clear
7:53 PM -6.0 °F -22.6 °F -13.0 °F 72% 30.54 in 10.0 mi WNW 9.2 mph - N/A   Clear
8:53 PM -8.0 °F -23.9 °F -14.1 °F 75% 30.56 in 10.0 mi WNW 8.1 mph - N/A   Clear
9:53 PM -9.0 °F -27.4 °F -15.0 °F 75% 30.57 in 10.0 mi WNW 10.4 mph - N/A   Clear
10:53 PM -11.0 °F -28.8 °F -16.1 °F 78% 30.59 in 10.0 mi WNW 9.2 mph - N/A   Clear
11:53 PM -11.9 °F -23.8 °F -18.0 °F 74% 30.60 in 10.0 mi West 4.6 mph - N/A   Clear